Time,TemperatureF,DewpointF,PressureIn,WindDirection,WindDirectionDegrees,WindSpeedMPH,WindSpeedGustMPH,Humidity,HourlyPrecipIn,Conditions,Clouds,dailyrainin,SoftwareType,DateUTC
2013-07-28 00:02:00,71.0,67.0,29.94,South,179,0.0,1.0,88,0.00,,,0.00,,2013-07-28 04:02:00,
2013-07-28 00:12:00,71.0,67.0,29.95,SSE,156,0.0,3.0,88,0.00,,,0.00,,2013-07-28 04:12:00,
2013-07-28 00:22:00,71.0,67.0,29.94,SE,146,0.0,2.0,88,0.00,,,0.00,,2013-07-28 04:22:00,
2013-07-28 00:32:00,71.0,67.0,29.94,SE,146,0.0,2.0,88,0.00,,,0.00,,2013-07-28 04:32:00,
2013-07-28 00:43:00,70.0,66.0,29.95,SSE,165,0.0,1.0,88,0.00,,,0.00,,2013-07-28 04:43:00,
2013-07-28 00:53:00,70.0,67.0,29.94,SSE,158,0.0,2.0,89,0.00,,,0.00,,2013-07-28 04:53:00,
2013-07-28 01:02:00,70.0,67.0,29.94,SSE,158,0.0,2.0,89,0.00,,,0.00,,2013-07-28 05:02:00,
2013-07-28 01:12:00,70.0,67.0,29.94,South,174,1.0,2.0,89,0.00,,,0.00,,2013-07-28 05:12:00,
2013-07-28 01:22:00,70.0,67.0,29.94,South,174,1.0,2.0,89,0.00,,,0.00,,2013-07-28 05:22:00,
2013-07-28 01:32:00,70.0,67.0,29.95,SSE,158,1.0,4.0,89,0.00,,,0.00,,2013-07-28 05:32:00,
2013-07-28 01:43:00,70.0,67.0,29.95,SE,129,1.0,4.0,89,0.00,,,0.00,,2013-07-28 05:43:00,
2013-07-28 01:53:00,70.0,67.0,29.95,SE,143,1.0,3.0,89,0.00,,,0.00,,2013-07-28 05:53:00,
2013-07-28 02:02:00,70.0,67.0,29.95,SE,143,1.0,3.0,89,0.00,,,0.00,,2013-07-28 06:02:00,
2013-07-28 02:12:00,70.0,67.0,29.94,South,173,0.0,3.0,89,0.00,,,0.00,,2013-07-28 06:12:00,
2013-07-28 02:22:00,70.0,67.0,29.94,SSE,158,0.0,3.0,90,0.00,,,0.00,,2013-07-28 06:22:00,
2013-07-28 02:32:00,70.0,67.0,29.94,SSE,158,0.0,3.0,90,0.00,,,0.00,,2013-07-28 06:32:00,
2013-07-28 02:43:00,70.0,67.0,29.94,SSE,162,0.0,2.0,90,0.00,,,0.00,,2013-07-28 06:43:00,
2013-07-28 02:52:00,70.0,67.0,29.93,SE,146,0.0,2.0,89,0.00,,,0.00,,2013-07-28 06:52:00,
2013-07-28 03:02:00,70.0,67.0,29.93,SE,146,0.0,2.0,89,0.00,,,0.00,,2013-07-28 07:02:00,
2013-07-28 03:12:00,70.0,67.0,29.94,SSE,153,0.0,1.0,89,0.00,,,0.00,,2013-07-28 07:12:00,
2013-07-28 03:23:00,70.0,66.0,29.93,SSE,167,0.0,1.0,88,0.00,,,0.00,,2013-07-28 07:23:00,
2013-07-28 03:32:00,70.0,66.0,29.93,SSE,167,0.0,1.0,88,0.00,,,0.00,,2013-07-28 07:32:00,
2013-07-28 03:43:00,70.0,67.0,29.93,SE,145,0.0,2.0,89,0.00,,,0.00,,2013-07-28 07:43:00,
2013-07-28 03:53:00,70.0,67.0,29.93,SSE,153,0.0,3.0,89,0.00,,,0.00,,2013-07-28 07:53:00,
2013-07-28 04:02:00,70.0,67.0,29.93,SSE,153,0.0,3.0,89,0.00,,,0.00,,2013-07-28 08:02:00,
2013-07-28 04:12:00,70.0,67.0,29.93,SSE,154,0.0,2.0,89,0.00,,,0.00,,2013-07-28 08:12:00,
2013-07-28 04:22:00,70.0,67.0,29.93,South,172,0.0,1.0,90,0.00,,,0.00,,2013-07-28 08:22:00,
2013-07-28 04:33:00,70.0,67.0,29.93,South,172,0.0,1.0,90,0.00,,,0.00,,2013-07-28 08:33:00,
2013-07-28 04:43:00,70.0,67.0,29.93,SSE,148,0.0,1.0,90,0.00,,,0.00,,2013-07-28 08:43:00,
2013-07-28 04:53:00,70.0,67.0,29.94,SSW,211,0.0,2.0,90,0.00,,,0.00,,2013-07-28 08:53:00,
2013-07-28 05:02:00,70.0,67.0,29.94,SSW,211,0.0,2.0,90,0.00,,,0.00,,2013-07-28 09:02:00,
2013-07-28 05:12:00,70.0,67.0,29.95,SE,139,0.0,3.0,90,0.00,,,0.00,,2013-07-28 09:12:00,
2013-07-28 05:22:00,70.0,67.0,29.94,SSE,167,1.0,2.0,90,0.00,,,0.00,,2013-07-28 09:22:00,
2013-07-28 05:32:00,70.0,67.0,29.94,SSE,167,1.0,2.0,90,0.00,,,0.00,,2013-07-28 09:32:00,
2013-07-28 05:43:00,70.0,67.0,29.94,SSE,158,0.0,3.0,90,0.00,,,0.00,,2013-07-28 09:43:00,
2013-07-28 05:53:00,70.0,67.0,29.95,South,173,0.0,3.0,90,0.00,,,0.00,,2013-07-28 09:53:00,
2013-07-28 06:02:00,70.0,67.0,29.95,South,173,0.0,3.0,90,0.00,,,0.00,,2013-07-28 10:02:00,
2013-07-28 06:12:00,70.0,67.0,29.94,SE,146,0.0,2.0,90,0.00,,,0.00,,2013-07-28 10:12:00,
2013-07-28 06:22:00,70.0,67.0,29.94,SE,146,0.0,2.0,90,0.00,,,0.00,,2013-07-28 10:22:00,
2013-07-28 06:33:00,70.0,67.0,29.95,South,186,0.0,1.0,90,0.00,,,0.00,,2013-07-28 10:33:00,
2013-07-28 06:42:00,70.0,67.0,29.95,SSE,166,0.0,2.0,91,0.00,,,0.00,,2013-07-28 10:42:00,
2013-07-28 06:52:00,70.0,67.0,29.95,SSE,166,0.0,2.0,91,0.00,,,0.00,,2013-07-28 10:52:00,
2013-07-28 07:12:00,71.0,67.0,29.97,SSW,201,0.0,4.0,88,0.00,,,0.00,,2013-07-28 11:12:00,
2013-07-28 07:22:00,71.0,67.0,29.97,SSW,205,0.0,2.0,88,0.00,,,0.00,,2013-07-28 11:22:00,
2013-07-28 07:33:00,71.0,67.0,29.97,SSW,205,0.0,2.0,88,0.00,,,0.00,,2013-07-28 11:33:00,
2013-07-28 07:43:00,71.0,67.0,29.97,SSE,148,0.0,2.0,88,0.00,,,0.00,,2013-07-28 11:43:00,
2013-07-28 07:54:00,72.0,68.0,29.97,SSW,201,0.0,4.0,87,0.00,,,0.00,,2013-07-28 11:54:00,
2013-07-28 08:03:00,72.0,68.0,29.97,SSW,201,0.0,4.0,87,0.00,,,0.00,,2013-07-28 12:03:00,
2013-07-28 08:13:00,73.0,68.0,29.97,SSE,163,0.0,5.0,85,0.00,,,0.00,,2013-07-28 12:13:00,
2013-07-28 08:22:00,73.0,67.0,29.96,SSE,162,0.0,3.0,82,0.00,,,0.00,,2013-07-28 12:22:00,
2013-07-28 08:33:00,73.0,67.0,29.96,SSE,162,0.0,3.0,82,0.00,,,0.00,,2013-07-28 12:33:00,
2013-07-28 08:43:00,73.0,66.0,29.96,South,181,1.0,4.0,80,0.00,,,0.00,,2013-07-28 12:43:00,
2013-07-28 08:53:00,73.0,66.0,29.97,SSE,147,1.0,6.0,79,0.00,,,0.00,,2013-07-28 12:53:00,
2013-07-28 09:02:00,73.0,66.0,29.97,SSE,147,1.0,6.0,79,0.00,,,0.00,,2013-07-28 13:02:00,
2013-07-28 09:12:00,73.0,66.0,29.96,SSE,167,2.0,8.0,79,0.00,,,0.00,,2013-07-28 13:12:00,
2013-07-28 09:22:00,74.0,68.0,29.96,South,181,4.0,8.0,81,0.00,,,0.00,,2013-07-28 13:22:00,
2013-07-28 09:32:00,74.0,68.0,29.96,South,181,4.0,8.0,81,0.00,,,0.00,,2013-07-28 13:32:00,
2013-07-28 09:43:00,73.0,67.0,29.96,SSE,160,4.0,10.0,82,0.00,,,0.00,,2013-07-28 13:43:00,
2013-07-28 09:53:00,73.0,68.0,29.96,SSE,162,5.0,10.0,84,0.00,,,0.00,,2013-07-28 13:53:00,
2013-07-28 10:02:00,73.0,68.0,29.96,SSE,162,5.0,10.0,84,0.00,,,0.00,,2013-07-28 14:02:00,
2013-07-28 10:12:00,73.0,68.0,29.95,ESE,116,3.0,9.0,83,0.00,,,0.00,,2013-07-28 14:12:00,
2013-07-28 10:23:00,73.0,68.0,29.95,ESE,116,3.0,9.0,83,0.00,,,0.00,,2013-07-28 14:23:00,
2013-07-28 10:33:00,73.0,68.0,29.95,South,176,4.0,9.0,83,0.00,,,0.00,,2013-07-28 14:33:00,
2013-07-28 10:43:00,74.0,68.0,29.95,South,176,5.0,9.0,83,0.00,,,0.00,,2013-07-28 14:43:00,
2013-07-28 10:53:00,74.0,68.0,29.95,SSE,152,3.0,9.0,83,0.00,,,0.00,,2013-07-28 14:53:00,
2013-07-28 11:03:00,74.0,68.0,29.95,SSE,152,3.0,9.0,83,0.00,,,0.00,,2013-07-28 15:03:00,
2013-07-28 11:13:00,75.0,69.0,29.95,South,188,5.0,11.0,81,0.00,,,0.00,,2013-07-28 15:13:00,
2013-07-28 11:23:00,75.0,69.0,29.95,SSE,148,4.0,11.0,81,0.00,,,0.00,,2013-07-28 15:23:00,
2013-07-28 11:33:00,75.0,69.0,29.95,SSE,148,4.0,11.0,81,0.00,,,0.00,,2013-07-28 15:33:00,
2013-07-28 11:43:00,75.0,68.0,29.95,SSE,149,6.0,14.0,80,0.00,,,0.00,,2013-07-28 15:43:00,
2013-07-28 11:53:00,75.0,68.0,29.95,SE,140,5.0,10.0,80,0.00,,,0.00,,2013-07-28 15:53:00,
2013-07-28 12:03:00,75.0,68.0,29.95,SE,140,5.0,10.0,80,0.00,,,0.00,,2013-07-28 16:03:00,
2013-07-28 12:12:00,75.0,68.0,29.95,SSE,162,4.0,8.0,80,0.00,,,0.00,,2013-07-28 16:12:00,
2013-07-28 12:22:00,75.0,68.0,29.95,SSE,162,4.0,8.0,80,0.00,,,0.00,,2013-07-28 16:22:00,
2013-07-28 12:33:00,75.0,68.0,29.95,South,177,4.0,11.0,78,0.00,,,0.00,,2013-07-28 16:33:00,
2013-07-28 12:43:00,74.0,67.0,29.96,South,177,7.0,10.0,79,0.00,,,0.00,,2013-07-28 16:43:00,
2013-07-28 12:52:00,74.0,68.0,29.96,SSE,160,4.0,11.0,81,0.00,,,0.00,,2013-07-28 16:52:00,
2013-07-28 13:02:00,74.0,68.0,29.96,SSE,160,4.0,11.0,81,0.00,,,0.00,,2013-07-28 17:02:00,
2013-07-28 13:13:00,74.0,68.0,29.96,SSE,165,7.0,13.0,81,0.00,,,0.00,,2013-07-28 17:13:00,
2013-07-28 13:23:00,74.0,68.0,29.96,SE,127,5.0,10.0,82,0.00,,,0.00,,2013-07-28 17:23:00,
2013-07-28 13:33:00,74.0,68.0,29.96,SE,127,5.0,10.0,82,0.00,,,0.00,,2013-07-28 17:33:00,
2013-07-28 13:43:00,73.0,68.0,29.96,South,176,4.0,13.0,85,0.00,,,0.00,,2013-07-28 17:43:00,
2013-07-28 14:03:00,73.0,69.0,29.96,South,180,5.0,13.0,87,0.00,,,0.00,,2013-07-28 18:03:00,
2013-07-28 14:13:00,73.0,69.0,29.95,SSE,160,6.0,12.0,87,0.00,,,0.00,,2013-07-28 18:13:00,
2013-07-28 14:23:00,73.0,69.0,29.94,SE,141,3.0,12.0,86,0.00,,,0.00,,2013-07-28 18:23:00,
2013-07-28 14:33:00,73.0,69.0,29.94,SE,141,3.0,12.0,86,0.00,,,0.00,,2013-07-28 18:33:00,
2013-07-28 14:43:00,74.0,69.0,29.94,SE,131,4.0,12.0,85,0.00,,,0.00,,2013-07-28 18:43:00,
2013-07-28 14:52:00,74.0,68.0,29.94,South,190,6.0,11.0,83,0.00,,,0.00,,2013-07-28 18:52:00,
2013-07-28 15:03:00,74.0,68.0,29.94,South,190,6.0,11.0,83,0.00,,,0.00,,2013-07-28 19:03:00,
2013-07-28 15:12:00,75.0,69.0,29.92,SSW,194,6.0,13.0,82,0.00,,,0.00,,2013-07-28 19:12:00,
2013-07-28 15:23:00,76.0,70.0,29.92,South,190,6.0,14.0,81,0.00,,,0.00,,2013-07-28 19:23:00,
2013-07-28 15:33:00,76.0,70.0,29.92,South,190,6.0,14.0,81,0.00,,,0.00,,2013-07-28 19:33:00,
2013-07-28 15:43:00,76.0,69.0,29.92,SSE,163,6.0,15.0,79,0.00,,,0.00,,2013-07-28 19:43:00,
2013-07-28 15:52:00,77.0,70.0,29.92,South,172,5.0,14.0,78,0.00,,,0.00,,2013-07-28 19:52:00,
2013-07-28 16:03:00,77.0,70.0,29.92,South,172,5.0,14.0,78,0.00,,,0.00,,2013-07-28 20:03:00,
2013-07-28 16:13:00,76.0,69.0,29.92,South,179,8.0,16.0,80,0.00,,,0.00,,2013-07-28 20:13:00,
2013-07-28 16:23:00,76.0,69.0,29.92,South,176,7.0,16.0,80,0.00,,,0.00,,2013-07-28 20:23:00,
2013-07-28 16:33:00,76.0,69.0,29.92,South,176,7.0,16.0,80,0.00,,,0.00,,2013-07-28 20:33:00,
2013-07-28 16:43:00,77.0,70.0,29.92,SSE,153,5.0,11.0,78,0.00,,,0.00,,2013-07-28 20:43:00,
2013-07-28 16:52:00,76.0,69.0,29.92,SSE,153,5.0,21.0,79,0.00,,,0.00,,2013-07-28 20:52:00,
2013-07-28 17:03:00,76.0,69.0,29.92,SSE,153,5.0,21.0,79,0.00,,,0.00,,2013-07-28 21:03:00,
2013-07-28 17:13:00,77.0,69.0,29.91,South,177,4.0,12.0,77,0.00,,,0.00,,2013-07-28 21:13:00,
2013-07-28 17:23:00,78.0,67.0,29.92,South,177,5.0,11.0,70,0.00,,,0.00,,2013-07-28 21:23:00,
2013-07-28 17:33:00,78.0,67.0,29.92,South,177,5.0,11.0,70,0.00,,,0.00,,2013-07-28 21:33:00,
2013-07-28 17:44:00,78.0,67.0,29.91,South,185,4.0,12.0,70,0.00,,,0.00,,2013-07-28 21:44:00,
2013-07-28 17:52:00,77.0,69.0,29.93,SE,135,5.0,11.0,77,0.00,,,0.00,,2013-07-28 21:52:00,
2013-07-28 18:02:00,77.0,69.0,29.93,SE,135,5.0,11.0,77,0.00,,,0.00,,2013-07-28 22:02:00,
2013-07-28 18:12:00,76.0,70.0,29.93,SSE,160,4.0,10.0,81,0.00,,,0.00,,2013-07-28 22:12:00,
2013-07-28 18:22:00,76.0,70.0,29.93,SSW,195,3.0,8.0,82,0.00,,,0.00,,2013-07-28 22:22:00,
2013-07-28 18:32:00,76.0,70.0,29.93,SSW,195,3.0,8.0,82,0.00,,,0.00,,2013-07-28 22:32:00,
2013-07-28 18:43:00,75.0,70.0,29.94,SSE,162,1.0,9.0,84,0.00,,,0.00,,2013-07-28 22:43:00,
2013-07-28 18:52:00,75.0,71.0,29.95,SSE,156,1.0,5.0,86,0.00,,,0.00,,2013-07-28 22:52:00,
2013-07-28 19:03:00,75.0,71.0,29.95,SSE,156,1.0,5.0,86,0.00,,,0.00,,2013-07-28 23:03:00,
2013-07-28 19:12:00,74.0,70.0,29.95,SSE,162,0.0,2.0,86,0.00,,,0.00,,2013-07-28 23:12:00,
2013-07-28 19:22:00,74.0,70.0,29.93,SSE,166,3.0,6.0,86,0.00,,,0.00,,2013-07-28 23:22:00,
2013-07-28 19:33:00,74.0,70.0,29.93,SSE,166,3.0,6.0,86,0.00,,,0.00,,2013-07-28 23:33:00,
2013-07-28 19:43:00,73.0,69.0,29.96,SE,144,0.0,4.0,87,0.00,,,0.00,,2013-07-28 23:43:00,
2013-07-28 19:53:00,73.0,69.0,29.96,SSE,160,1.0,3.0,87,0.00,,,0.00,,2013-07-28 23:53:00,
2013-07-28 20:03:00,73.0,69.0,29.96,SSE,160,1.0,3.0,87,0.00,,,0.00,,2013-07-29 00:03:00,
2013-07-28 20:22:00,73.0,70.0,29.93,SSE,167,3.0,6.0,89,0.04,,,0.04,,2013-07-29 00:22:00,
2013-07-28 20:32:00,73.0,70.0,29.93,SSE,167,3.0,6.0,89,0.04,,,0.04,,2013-07-29 00:32:00,
2013-07-28 20:43:00,72.0,69.0,29.92,South,169,3.0,8.0,90,0.04,,,0.04,,2013-07-29 00:43:00,
2013-07-28 20:52:00,72.0,69.0,29.92,South,169,3.0,8.0,90,0.04,,,0.04,,2013-07-29 00:52:00,
2013-07-28 21:02:00,72.0,69.0,29.94,SSE,155,0.0,5.0,90,0.05,,,0.05,,2013-07-29 01:02:00,
2013-07-28 21:14:00,72.0,69.0,29.93,SSW,193,1.0,4.0,91,0.03,,,0.06,,2013-07-29 01:14:00,
2013-07-28 21:29:00,72.0,69.0,29.93,SSW,193,1.0,4.0,91,0.03,,,0.06,,2013-07-29 01:29:00,
2013-07-28 21:37:00,72.0,69.0,29.93,South,176,2.0,7.0,91,0.02,,,0.06,,2013-07-29 01:37:00,
2013-07-28 22:07:00,72.0,70.0,29.95,South,181,2.0,8.0,92,0.01,,,0.06,,2013-07-29 02:07:00,
2013-07-28 22:15:00,72.0,70.0,29.96,SE,128,1.0,6.0,92,0.00,,,0.06,,2013-07-29 02:15:00,
2013-07-28 22:27:00,72.0,70.0,29.96,SE,128,1.0,6.0,92,0.00,,,0.06,,2013-07-29 02:27:00,
2013-07-28 22:38:00,72.0,70.0,29.96,South,185,0.0,4.0,92,0.00,,,0.06,,2013-07-29 02:38:00,
2013-07-28 22:57:00,72.0,70.0,29.97,SE,137,0.0,6.0,92,0.00,,,0.06,,2013-07-29 02:57:00,
2013-07-28 23:05:00,72.0,70.0,29.97,SE,137,0.0,6.0,92,0.00,,,0.06,,2013-07-29 03:05:00,
2013-07-28 23:25:00,72.0,70.0,29.97,SSE,160,0.0,2.0,92,0.00,,,0.06,,2013-07-29 03:25:00,
2013-07-28 23:48:00,72.0,70.0,29.96,SSE,158,0.0,3.0,93,0.05,,,0.11,,2013-07-29 03:48:00,
2013-07-28 23:57:00,72.0,70.0,29.95,West,281,0.0,1.0,93,0.08,,,0.14,,2013-07-29 03:57:00,